Location: Alpino
(32.5215°N, 116.5815°W)
Time: 09:39:59
(UTC+00:00)

ATLAS 2AS CENTAUR R/B - Pass Details

Date: 13 April 2024
Orbit: 1016 x 1195 km, 63.7° (Epoch: 22 May)

Event Time Altitude Azimuth Distance (km) Brightness Sun altitude
Exits shadow 12:37:43 11° 246° (WSW) 3,055 4.4 -9.2°
Maximum altitude 12:44:10 34° 308° (NW) 1,822 3.7 -7.9°
Drops below altitude 10° 12:50:37 10° 12° (NNE) 3,015 5.5 -6.6°
Sets 12:53:35 0° 21° (NNE) 3,948 6.2 -6.0°
